Location: Unspecified
(0.0000°N, 0.0000°E)
Time: 03:58:19
(UTC+00:00)

Hubble Space Telescope - Pass Details

Date: 28 May 2019
Orbit: 536 x 540 km, 28.5° (Epoch: 26 June)

Event Time Altitude Azimuth Distance (km) Brightness Sun altitude
Rises 19:14:40 0° 293° (WNW) 2,668 6.1 -17.9°
Reaches altitude 10° 19:16:58 10° 289° (WNW) 1,779 4.7 -18.5°
Maximum altitude 19:21:00 55° 210° (SSW) 639 1.1 -19.4°
Enters shadow 19:21:59 43° 161° (SSE) 759 1.2 -19.6°
